Temp
15 15 16 17 17 18 18 19 20 21 21 22 23 24 25 25 25 26 27 27 27 26 25 24 22 21 20 20 20 21 20 20 21 21 22 21 22 22 21 19 20 20 19 20 19
15 15 15 16 17 17 18 18 19 20 21 22 23 24 24 25 26 27 27 27 27 27 25 25 22 21 20 20 21 20 19 23 24 23 23 21 23 22 21 20 20 20 20 19 19
14 15 15 16 16 17 17 18 19 19 20 21 22 23 24 25 25 26 27 27 26 26 24 24 22 21 19 20 20 20 20 23 26 24 23 22 22 23 20 20 20 18 18 18 18
14 14 15 15 16 17 17 18 18 19 20 21 22 22 23 24 24 26 26 26 26 25 24 23 21 21 20 20 21 21 22 25 26 26 24 23 23 22 22 22 22 20 20 19 18
13 14 14 15 16 16 17 18 18 19 19 20 21 21 22 23 25 26 26 25 25 25 24 23 21 22 23 24 23 22 25 25 26 26 24 24 23 24 22 23 22 20 19 18 18
13 13 14 15 15 16 17 18 18 19 20 20 20 21 21 20 25 26 26 26 25 25 24 24 25 26 26 26 26 26 26 27 25 24 24 24 23 24 20 21 20 19 18 18 19
13 13 14 14 15 16 17 18 18 19 20 20 20 20 20 24 24 25 25 25 25 26 25 25 25 26 26 26 27 26 25 24 25 24 23 25 22 22 21 20 19 17 18 18 19
12 13 13 14 14 16 17 18 18 19 20 20 20 19 20 24 24 25 24 24 24 25 25 25 26 26 26 27 25 23 23 22 25 24 23 25 22 21 20 19 18 18 17 18 19
12 13 13 14 14 15 16 17 18 18 19 19 19 19 20 23 24 25 25 25 25 25 26 26 26 26 25 22 21 20 23 24 24 25 23 24 22 20 19 19 18 17 18 19 19
12 13 13 14 14 15 16 17 17 17 17 17 17 18 21 21 22 23 25 25 25 25 25 26 25 21 19 20 21 23 24 24 24 25 25 23 23 19 19 19 18 18 18 18 19
12 13 13 13 14 14 16 16 16 17 16 17 17 18 20 21 21 23 23 23 24 25 22 24 21 21 22 22 23 24 24 24 23 25 24 23 22 19 19 18 18 18 18 18 20
12 13 13 13 14 14 15 14 11 12 11 17 18 18 19 19 18 22 22 23 23 21 21 21 20 21 23 22 24 23 24 23 23 24 23 22 22 20 19 19 19 19 18 18 19
11 12 13 13 14 14 14 13 13 13 11 15 17 18 19 19 19 21 22 23 21 20 20 21 22 23 23 23 23 22 22 22 24 24 24 23 22 22 19 20 19 19 19 19 20
11 11 12 13 13 13 13 13 13 14 9 14 16 18 19 18 18 21 22 23 21 20 19 20 22 23 22 23 22 21 22 24 24 23 22 23 21 22 20 19 19 19 19 19 19
11 10 11 11 12 12 13 13 14 14 14 19 18 19 19 18 20 21 21 23 20 20 20 20 20 21 22 22 23 22 24 23 24 22 22 23 21 21 19 19 19 20 20 20 20
10 10 10 10 11 12 13 14 14 11 13 17 17 15 17 17 18 19 21 22 22 21 21 20 22 21 22 23 23 24 24 20 18 18 18 22 22 21 21 21 20 21 20 20 20
11 10 10 11 11 12 13 14 10 11 14 14 14 13 14 14 16 16 19 20 18 18 19 20 21 22 24 23 23 21 19 18 19 18 19 22 20 24 24 24 23 21 21 21 20
11 11 12 12 11 12 13 10 12 13 13 14 14 14 14 13 15 14 16 15 15 16 15 17 19 20 22 21 20 19 18 17 20 18 20 20 21 24 24 26 25 25 25 21 20
11 12 12 12 12 12 12 8 10 11 13 13 13 13 13 13 15 14 14 13 16 15 17 15 18 20 21 21 22 21 19 19 19 18 18 19 22 24 24 24 24 23 23 22 20
12 12 11 11 12 12 8 8 9 10 13 13 14 13 13 12 13 13 13 14 14 16 14 16 18 19 22 22 22 20 19 19 14 19 19 19 19 22 24 25 23 22 22 22 21
11 12 11 12 11 12 7 6 9 13 13 13 13 13 13 13 13 13 13 15 13 14 14 14 15 18 20 19 19 19 19 16 16 16 18 19 21 20 25 24 22 21 23 22 22
10 7 11 11 9 3 6 9 12 12 14 13 14 13 13 12 12 12 13 14 14 13 14 13 11 15 17 18 20 19 18 19 19 18 15 17 23 23 24 23 23 23 23 23 23
8 9 11 11 7 5 6 9 11 12 12 13 13 13 13 12 11 12 12 14 14 12 13 14 11 13 15 18 17 20 19 17 15 15 19 19 20 23 21 22 24 23 24 24 23
7 4 9 10 7 6 7 8 10 12 12 11 11 11 11 11 8 11 11 13 13 12 14 12 9 12 13 16 14 16 19 19 17 16 17 17 21 22 24 22 23 25 24 24 24
7 4 4 3 5 5 6 7 9 9 11 11 10 11 10 10 9 9 10 10 12 12 11 9 11 11 11 12 14 15 17 18 18 18 20 21 19 21 22 22 23 28 25 24 24
6 5 5 4 4 5 5 7 7 8 10 10 10 10 9 9 9 9 9 10 10 10 9 7 11 10 12 14 15 16 17 18 18 20 18 19 19 19 19 20 22 26 27 25 25
5 5 5 4 5 5 4 6 6 6 9 8 9 8 8 9 10 11 12 11 11 11 9 8 8 9 13 11 13 16 17 19 20 18 18 19 19 17 17 17 19 24 27 28 30
Height
1513 1511 1509 1507 1505 1503 1502 1500 1499 1498 1497 1496 1495 1494 1492 1492 1493 1492 1491 1492 1492 1492 1494 1496 1497 1499 1500 1501 1501 1497 1506 1511 1502 1505 1499 1500 1503 1507 1508 1511 1515 1518 1519 1523 1527
1512 1510 1509 1506 1504 1502 1500 1499 1497 1495 1494 1494 1494 1493 1491 1489 1490 1490 1491 1490 1491 1491 1492 1494 1496 1498 1501 1502 1502 1501 1507 1497 1490 1494 1493 1496 1500 1505 1509 1513 1516 1518 1519 1524 1528
1512 1509 1507 1505 1503 1501 1499 1497 1496 1494 1492 1491 1491 1492 1491 1489 1489 1488 1487 1488 1490 1491 1493 1495 1497 1499 1501 1501 1500 1500 1502 1486 1484 1491 1494 1498 1503 1504 1508 1514 1512 1514 1518 1522 1528
1510 1508 1506 1503 1501 1499 1497 1495 1494 1492 1490 1489 1489 1489 1489 1489 1494 1487 1487 1488 1489 1491 1492 1494 1495 1497 1498 1497 1495 1498 1489 1486 1484 1486 1493 1498 1501 1504 1507 1509 1511 1515 1519 1521 1526
1509 1506 1504 1501 1499 1497 1494 1492 1490 1489 1488 1487 1487 1487 1488 1488 1486 1486 1486 1488 1489 1490 1491 1494 1495 1496 1496 1491 1491 1494 1484 1482 1485 1487 1494 1498 1504 1507 1509 1509 1511 1515 1521 1524 1529
1508 1505 1502 1499 1496 1494 1491 1489 1487 1485 1485 1484 1484 1485 1486 1487 1483 1483 1485 1486 1488 1488 1491 1493 1492 1494 1493 1490 1488 1489 1485 1483 1486 1490 1495 1498 1503 1506 1510 1509 1512 1516 1520 1525 1528
1505 1503 1500 1496 1493 1490 1488 1486 1483 1482 1481 1480 1481 1481 1482 1476 1479 1480 1482 1484 1486 1487 1489 1492 1493 1494 1491 1488 1486 1487 1489 1486 1490 1492 1495 1497 1506 1506 1507 1510 1512 1519 1521 1526 1531
1503 1501 1498 1494 1490 1487 1485 1483 1480 1478 1477 1477 1477 1478 1475 1473 1474 1477 1480 1482 1484 1485 1487 1490 1490 1491 1490 1488 1487 1491 1492 1504 1493 1493 1497 1498 1514 1505 1507 1508 1514 1516 1521 1527 1531
1501 1498 1496 1492 1488 1484 1481 1480 1478 1476 1475 1475 1476 1477 1472 1468 1469 1473 1474 1478 1481 1483 1485 1488 1488 1488 1489 1494 1503 1501 1510 1503 1500 1492 1494 1498 1507 1502 1505 1507 1511 1516 1517 1522 1529
1498 1496 1493 1490 1486 1482 1479 1477 1475 1475 1474 1474 1474 1478 1468 1466 1466 1467 1469 1472 1476 1479 1483 1484 1486 1490 1494 1501 1521 1509 1507 1503 1503 1496 1496 1501 1501 1502 1503 1504 1506 1510 1515 1517 1522
1497 1493 1491 1488 1484 1481 1478 1476 1477 1476 1473 1471 1470 1467 1464 1465 1465 1465 1468 1469 1471 1476 1482 1481 1491 1499 1492 1492 1494 1497 1502 1505 1498 1492 1496 1497 1499 1499 1500 1505 1508 1509 1511 1515 1514
1495 1491 1489 1487 1483 1482 1480 1477 1481 1482 1473 1466 1464 1462 1462 1465 1467 1463 1465 1468 1467 1474 1476 1485 1493 1483 1484 1489 1492 1497 1502 1504 1495 1491 1496 1498 1495 1492 1495 1494 1495 1499 1505 1508 1515
1492 1489 1487 1485 1483 1483 1481 1481 1481 1480 1478 1462 1459 1458 1458 1460 1460 1457 1463 1462 1465 1472 1474 1481 1480 1478 1483 1488 1494 1499 1504 1503 1502 1494 1492 1495 1499 1492 1493 1495 1499 1499 1500 1502 1506
1490 1486 1484 1483 1484 1482 1482 1482 1481 1481 1488 1466 1459 1457 1457 1457 1456 1452 1457 1461 1463 1468 1473 1476 1472 1477 1483 1488 1490 1505 1492 1494 1495 1504 1519 1495 1524 1493 1489 1492 1494 1496 1496 1499 1501
1488 1484 1482 1480 1481 1481 1482 1481 1481 1481 1495 1459 1458 1457 1455 1458 1454 1450 1452 1457 1461 1463 1468 1474 1474 1478 1482 1483 1485 1494 1487 1492 1494 1503 1505 1504 1518 1494 1486 1493 1488 1484 1487 1490 1494
1486 1483 1479 1479 1478 1479 1479 1479 1480 1492 1492 1463 1458 1459 1456 1456 1454 1451 1451 1455 1457 1461 1464 1467 1466 1469 1470 1474 1478 1481 1488 1497 1505 1511 1530 1502 1509 1497 1487 1478 1472 1473 1477 1482 1487
1483 1480 1476 1476 1477 1477 1478 1479 1493 1496 1469 1473 1468 1464 1465 1464 1458 1455 1452 1458 1466 1477 1476 1468 1468 1465 1465 1475 1476 1485 1503 1531 1529 1534 1528 1493 1507 1482 1465 1460 1457 1460 1463 1469 1478
1480 1476 1474 1474 1475 1476 1478 1482 1490 1478 1477 1470 1468 1467 1470 1468 1464 1462 1460 1470 1466 1467 1480 1483 1488 1468 1464 1471 1481 1486 1495 1525 1534 1535 1517 1498 1507 1477 1453 1448 1449 1450 1452 1461 1469
1479 1476 1475 1475 1476 1477 1479 1492 1487 1481 1476 1474 1470 1474 1476 1470 1467 1468 1474 1479 1472 1469 1476 1484 1481 1462 1460 1463 1469 1484 1498 1488 1507 1515 1521 1505 1481 1459 1449 1445 1444 1445 1449 1456 1463
1479 1478 1478 1478 1478 1478 1481 1486 1483 1478 1475 1474 1475 1475 1480 1478 1474 1474 1480 1479 1476 1469 1468 1475 1481 1464 1458 1460 1465 1471 1477 1501 1517 1523 1528 1511 1498 1481 1456 1449 1447 1447 1448 1451 1459
1480 1480 1480 1480 1480 1479 1488 1488 1481 1475 1475 1474 1474 1477 1479 1479 1477 1479 1483 1478 1475 1471 1469 1472 1477 1473 1463 1468 1474 1477 1483 1492 1495 1506 1513 1517 1489 1456 1450 1443 1444 1444 1444 1447 1451
1482 1482 1481 1481 1483 1487 1488 1483 1478 1474 1472 1472 1471 1473 1477 1479 1483 1482 1483 1480 1477 1474 1477 1476 1486 1484 1474 1461 1460 1462 1471 1475 1494 1503 1506 1505 1469 1442 1442 1441 1442 1439 1440 1446 1449
1484 1482 1481 1481 1489 1490 1485 1482 1478 1476 1473 1472 1473 1472 1475 1480 1487 1484 1483 1481 1479 1478 1480 1477 1491 1494 1482 1470 1464 1465 1465 1469 1480 1485 1486 1498 1481 1442 1442 1437 1437 1437 1437 1441 1446
1487 1487 1482 1481 1486 1488 1488 1484 1481 1476 1475 1474 1476 1475 1479 1483 1486 1487 1486 1482 1482 1481 1479 1478 1493 1493 1495 1481 1481 1477 1467 1466 1471 1491 1487 1484 1468 1452 1441 1439 1432 1432 1432 1435 1439
1490 1492 1493 1494 1489 1490 1490 1488 1483 1482 1477 1476 1478 1479 1481 1488 1489 1492 1490 1487 1484 1483 1481 1483 1492 1490 1486 1482 1481 1476 1470 1467 1470 1466 1471 1461 1467 1450 1440 1435 1430 1428 1430 1431 1434
1491 1492 1492 1493 1492 1491 1490 1490 1488 1485 1481 1480 1480 1479 1481 1486 1487 1492 1490 1491 1491 1487 1487 1488 1493 1492 1485 1474 1475 1473 1465 1462 1462 1459 1462 1456 1457 1442 1437 1434 1427 1424 1423 1426 1425
1491 1492 1492 1493 1493 1493 1496 1493 1491 1488 1483 1483 1482 1483 1485 1485 1485 1486 1486 1487 1488 1490 1492 1494 1496 1497 1490 1484 1478 1475 1462 1455 1452 1454 1456 1459 1447 1441 1433 1428 1424 1420 1418 1417 1415
Wind_Speed
16 16 15 14 14 14 13 14 13 13 13 11 11 11 13 13 11 11 9 2 6 8 9 13 17 11 13 2 1 2 3 2 4 7 4 9 5 5 7 17 6 11 15 22 31
17 16 16 16 15 14 13 13 13 14 14 12 11 11 12 14 13 10 8 7 8 6 10 10 19 12 4 2 4 2 1 5 6 6 3 13 12 12 5 11 4 10 10 35 31
17 18 17 17 16 16 15 14 13 14 14 14 12 11 11 12 11 1 3 8 8 5 8 8 9 12 5 6 6 4 4 5 4 12 12 11 9 10 13 4 11 25 28 38 32
18 18 18 18 18 17 16 16 14 13 13 14 13 11 10 7 3 5 10 7 8 10 10 15 11 5 4 5 11 4 15 9 6 7 8 10 11 5 13 4 13 22 31 37 34
18 18 19 19 19 18 17 16 16 15 14 13 13 12 9 7 8 8 8 3 6 11 13 13 15 7 4 4 6 3 5 17 14 12 7 9 5 1 8 0 10 23 34 35 32
20 20 19 19 20 19 18 17 16 16 15 14 13 11 8 6 8 12 12 7 7 13 13 16 8 10 8 4 2 3 5 2 12 11 9 7 2 7 2 8 17 25 35 35 33
22 22 21 20 20 20 18 17 16 16 14 13 13 12 13 22 9 13 12 8 9 11 11 10 9 3 5 4 9 4 4 7 11 7 4 13 2 3 10 16 25 28 30 33 31
19 20 21 22 20 20 18 16 17 13 10 9 9 11 11 16 22 16 16 14 12 13 14 8 7 8 4 1 7 4 4 4 2 4 7 8 6 3 18 25 25 28 28 30 29
20 19 19 21 21 21 16 14 13 8 4 4 6 7 9 10 19 22 24 21 14 15 14 10 8 2 2 5 5 6 3 2 1 7 7 5 5 7 22 25 24 26 30 34 30
22 21 20 20 20 19 16 12 7 5 3 5 7 4 13 3 6 12 21 22 15 14 7 6 5 3 3 4 4 3 2 1 3 2 3 5 3 5 18 21 25 28 29 36 36
23 22 21 20 19 12 14 6 4 4 6 6 3 9 13 7 9 7 9 5 9 8 6 5 4 5 9 6 5 4 2 3 3 5 5 6 5 13 22 17 19 24 28 31 40
22 22 21 19 15 4 8 7 11 8 10 11 17 27 30 27 12 12 11 7 8 7 7 3 6 9 4 5 3 3 1 5 5 4 5 4 10 8 16 23 33 32 30 33 34
23 21 20 17 7 1 3 8 10 9 3 10 8 10 8 10 13 24 9 8 5 7 9 9 8 7 6 3 4 3 4 3 5 4 2 3 6 4 10 16 22 24 32 35 41
23 20 18 15 4 3 3 5 9 7 4 6 3 0 3 4 5 10 18 8 4 12 8 5 4 8 5 5 7 5 7 3 4 3 3 3 5 5 7 17 15 24 30 33 38
21 18 16 13 12 8 7 6 6 2 1 1 1 1 4 6 9 3 16 12 6 6 7 9 8 7 5 7 7 9 4 5 3 4 2 3 0 7 5 5 14 26 34 37 43
20 17 18 14 12 6 5 4 3 5 5 5 5 7 4 6 6 6 4 9 4 4 2 6 3 7 9 5 9 4 3 6 5 4 1 7 6 7 5 9 9 24 35 39 42
21 18 18 15 5 3 3 2 4 3 5 6 4 6 1 6 7 7 3 4 4 4 3 2 2 2 3 5 3 6 6 2 3 1 5 2 5 13 8 11 11 18 36 42 43
22 16 12 6 4 4 3 4 2 1 2 3 3 4 4 7 5 9 4 4 9 5 4 6 4 7 3 6 7 6 9 6 6 3 4 3 6 7 10 17 15 21 36 39 42
19 9 7 7 5 3 3 3 5 4 2 5 4 5 6 5 3 4 6 5 2 5 4 5 5 4 5 5 9 4 4 6 5 1 2 4 7 9 9 9 5 9 21 31 39
13 7 7 4 3 4 4 3 3 4 3 1 1 2 3 7 5 5 4 4 6 3 3 2 1 3 4 5 2 8 8 3 3 6 5 5 5 6 7 7 2 5 17 29 36
8 2 4 1 3 3 3 4 4 6 4 2 1 3 2 1 3 3 3 1 7 8 6 1 3 5 3 5 9 2 3 5 5 5 6 2 8 7 10 11 8 8 25 31 38
7 2 5 1 4 2 0 2 4 5 2 1 2 3 3 1 4 3 2 3 15 6 3 4 4 4 10 4 2 5 10 10 6 6 3 3 13 5 9 5 7 16 26 29 35
12 4 3 2 1 3 5 4 3 4 4 2 2 2 2 3 4 2 2 2 12 7 3 2 3 2 6 5 5 2 2 5 4 4 11 5 7 2 6 9 11 19 24 29 31
7 4 4 6 6 3 3 4 5 6 2 4 3 5 4 4 6 2 5 3 9 11 9 3 3 3 5 3 1 4 3 4 6 4 5 7 6 8 13 10 9 17 22 28 35
6 2 2 3 4 3 2 3 4 6 6 6 4 3 4 3 3 3 3 5 5 14 7 4 3 3 5 8 3 4 6 6 5 6 7 7 9 9 11 11 14 25 19 24 33
3 3 2 2 6 4 5 4 4 6 1 4 4 1 4 4 4 5 4 1 0 6 5 6 1 2 5 2 3 5 9 9 8 4 8 3 7 4 18 22 19 26 22 27 32
2 2 1 5 4 3 2 4 5 8 3 8 2 4 5 3 2 1 1 2 1 0 1 3 2 3 5 6 7 3 6 5 3 5 2 3 5 7 11 13 18 28 27 32 34
Wind_Direction
355 352 347 342 337 333 329 323 313 306 305 301 300 303 303 305 309 303 295 240 185 182 164 167 170 170 164 158 305 312 53 284 191 171 203 154 140 137 139 136 144 177 164 169 160
353 350 347 342 337 331 327 322 315 306 299 295 292 295 298 304 310 299 268 233 218 220 183 182 184 185 196 235 212 139 315 224 172 178 159 165 163 144 130 146 123 152 154 160 161
350 346 343 340 336 333 328 320 314 306 297 292 288 286 288 301 322 327 245 224 211 192 178 160 183 182 209 199 198 182 220 268 239 153 122 154 148 152 134 195 184 159 157 162 164
346 343 340 336 333 330 326 322 315 305 294 286 286 281 277 282 247 147 81 81 161 184 174 173 177 185 211 217 185 192 238 248 296 201 149 153 163 166 159 195 208 189 170 166 170
340 339 337 333 329 325 322 318 312 303 293 284 282 281 272 246 238 232 266 320 191 201 192 183 185 202 269 233 141 250 264 230 221 193 154 129 108 247 175 206 170 171 172 173 175
336 336 335 331 327 322 319 314 306 299 296 286 274 271 258 241 238 243 252 236 212 216 211 202 217 213 269 250 196 190 319 89 192 152 143 121 98 171 104 161 155 170 171 178 181
330 331 331 329 325 320 316 313 307 305 294 275 267 260 249 245 236 232 229 207 211 219 219 213 236 241 308 307 332 12 64 53 110 138 113 122 7 206 172 165 156 162 172 182 187
328 328 330 329 325 318 315 313 311 310 293 266 259 259 251 252 242 224 212 201 209 219 230 243 254 284 224 274 5 49 31 71 240 141 150 124 264 124 165 160 157 164 173 186 191
330 331 332 331 327 321 315 314 312 314 292 248 260 245 260 244 244 231 236 240 228 227 236 252 269 237 161 88 19 7 144 72 84 226 153 169 214 180 170 165 162 172 176 187 193
332 334 335 336 329 324 321 317 272 290 267 249 237 272 248 218 221 220 227 242 236 219 219 200 172 104 44 82 185 169 72 342 186 246 166 221 256 167 174 173 175 178 184 189 195
330 331 334 338 334 333 333 305 276 264 251 230 203 250 277 265 274 244 217 237 203 178 162 164 120 191 208 183 151 139 133 252 258 205 164 226 211 187 186 186 185 189 189 196 198
327 324 329 338 336 20 7 63 35 315 306 271 258 256 259 268 288 263 228 210 164 177 125 76 195 209 119 159 145 122 159 275 291 216 167 212 257 187 181 198 195 192 193 199 204
325 320 322 336 330 249 36 35 5 343 281 290 266 268 271 245 235 255 212 197 176 159 182 187 206 161 153 154 147 148 173 225 237 360 264 113 294 179 210 219 210 208 202 199 202
331 321 317 329 301 283 233 332 334 322 40 278 282 289 293 209 268 264 222 194 196 192 155 208 187 161 157 176 147 236 215 198 255 69 233 133 275 262 189 210 206 205 205 204 204
334 325 314 317 305 302 242 278 303 246 11 309 135 150 310 194 317 17 187 194 172 158 135 217 163 162 176 182 155 228 178 219 207 209 38 201 76 272 108 195 220 211 208 205 207
335 327 309 307 305 285 243 287 177 50 242 357 357 359 35 7 346 326 162 200 186 111 57 178 144 163 201 160 175 116 108 40 51 100 258 228 167 273 194 207 225 214 211 206 203
335 322 307 305 298 241 244 155 54 156 332 345 322 11 352 351 356 359 118 105 132 119 191 1 210 202 136 111 126 105 85 319 327 347 219 180 160 241 264 242 221 197 207 205 200
339 331 318 302 217 208 190 55 189 313 322 314 351 339 66 347 358 352 51 55 12 25 134 157 270 162 178 167 170 170 150 155 196 209 261 139 218 253 236 272 264 230 215 199 195
349 4 66 87 124 161 167 89 209 210 286 320 329 68 358 351 41 46 57 24 35 354 160 142 253 260 201 150 138 187 143 188 118 26 16 250 283 301 275 276 312 256 199 191 193
358 78 71 90 63 5 80 231 229 218 309 247 72 41 63 344 42 50 36 327 332 333 216 158 74 241 252 102 299 159 169 90 357 173 251 277 267 238 304 295 232 179 185 187 194
7 93 16 304 353 8 131 234 276 272 307 209 152 92 71 70 26 40 355 43 351 322 50 61 104 287 84 190 176 144 162 58 135 153 188 188 254 213 243 262 214 204 197 195 194
5 56 9 264 26 40 92 234 305 297 351 343 115 103 122 131 41 76 86 37 352 333 30 348 126 210 219 259 283 185 181 184 206 246 227 187 257 256 244 283 238 232 212 206 203
343 309 56 181 92 336 316 300 272 323 315 8 110 84 90 98 98 39 345 345 17 38 42 307 19 21 357 357 0 76 245 145 114 111 220 219 268 285 300 295 263 252 227 213 205
353 358 14 71 66 100 16 304 317 327 0 55 74 59 79 46 22 123 350 27 349 10 1 107 80 140 189 200 223 306 310 205 147 152 180 224 256 288 288 274 273 270 243 217 211
10 45 34 334 1 2 326 317 311 358 6 27 29 72 145 114 72 92 2 334 21 3 16 71 92 319 255 259 257 251 264 275 231 202 183 225 208 244 251 271 260 274 256 217 211
23 22 11 347 319 344 16 41 34 318 338 332 136 164 130 128 191 166 144 358 306 337 31 350 164 8 295 294 332 269 257 249 240 259 268 265 260 208 303 310 283 269 250 230 223
64 51 350 13 355 25 22 355 345 351 45 42 239 96 88 99 104 31 123 178 176 190 6 46 69 45 275 348 331 278 246 226 145 52 298 254 271 324 310 300 277 264 242 239 233